sat.trackr.live / text

‹ back to catalog

ONEWEB-0600

NORAD 54664 · 2022-166Y

PAYLOAD ACTIVE UNKNOWN

§ Identity

Operator
Country
UK
Launch date
2022-12-08
Launch site
AFETR
Launch vehicle
Mass (kg)
RCS (m²)

Purposes: comms

External: N2YO · Heavens-Above · Gunter

§ Orbital elements

Epoch: 2026-09-20T04:37:08.300352Z

Period
108.94 min
Inclination
87.9281°
Eccentricity
0.0002219
Mean motion
13.21826666 rev/d
Perigee alt
1,176.1 km
Apogee alt
1,179.4 km
Semi-major
7,555.9 km
B*
-6.3054e-5
RAAN
225.0672°
Arg perigee
76.3841°
Mean anomaly
283.7540°
Rev number
18,406

§ Raw data

ONEWEB-06001 54664U 22166Y   26263.19245718 -.00000013  00000+0 -63054-4 0  99952 54664  87.9281 225.0672 0002219  76.3841 283.7540 13.21826666184068

JSON: /api/v1/satellites/54664 · /tle

For live sub-satellite position, see the globe view (requires WebGL).

§ Visibility from observer

Set your observer location to see the next 7 days of passes ≥ 10°. The values pass through the URL so the page stays shareable.

No JS? Fill the form by hand. The geolocation button needs JavaScript.